This is the latest recevied weather packets stored in our database for station/object EA1AHA-13. If no packets are shown the sender has not sent any weather packets the latest 10 day(s).
| Time | Temp. | Humidity | Pressure | Rain* | Wind** | Luminosity | Snow |
|---|---|---|---|---|---|---|---|
| 1777544814 | 17.78° C | 79% | 1014.2 hPa | 0 mm | - | - | - |
| 1777543990 | 17.78° C | 79% | 1014.2 hPa | 0 mm | - | - | - |
| 1777543693 | 17.78° C | 79% | 1014 hPa | 0 mm | - | - | - |
| 1777542990 | 17.78° C | 81% | 1014.1 hPa | 0 mm | - | - | - |
| 1777542366 | 17.78° C | 81% | 1014 hPa | 0 mm | - | - | - |
| 1777541791 | 18.33° C | 81% | 1013.6 hPa | 0 mm | - | - | - |
| 1777541166 | 17.78° C | 81% | 1013.5 hPa | 0 mm | - | - | - |
| 1777540590 | 17.22° C | 82% | 1013.3 hPa | 0 mm | - | - | - |
| 1777539966 | 17.78° C | 82% | 1013.5 hPa | 0 mm | - | - | - |
| 1777539391 | 17.78° C | 83% | 1013.3 hPa | 0 mm | - | - | - |
| 1777538767 | 16.67° C | 86% | 1013.4 hPa | 0 mm | - | - | - |
| 1777538190 | 16.67° C | 88% | 1013.4 hPa | 0 mm | - | - | - |
| 1777537615 | 16.11° C | 89% | 1013.1 hPa | 0 mm | - | - | - |
| 1777536991 | 16.11° C | 90% | 1012.9 hPa | 0 mm | - | - | - |
| 1777536367 | 16.11° C | 91% | 1013.2 hPa | 0 mm | - | - | - |
| 1777535791 | 16.11° C | 91% | 1013 hPa | 0 mm | - | - | - |
| 1777535166 | 15.56° C | 91% | 1013 hPa | 0 mm | - | - | - |
| 1777534590 | 15.56° C | 92% | 1012.8 hPa | 0 mm | - | - | - |
| 1777534014 | 15° C | 93% | 1012.5 hPa | 0 mm | - | - | - |
| 1777533390 | 15° C | 95% | 1012.7 hPa | 0 mm | - | - | - |
| 1777532766 | 14.44° C | 96% | 1012.5 hPa | 0 mm | - | - | - |
| 1777532191 | 14.44° C | 96% | 1012.4 hPa | 0 mm | - | - | - |
| 1777531566 | 14.44° C | 97% | 1012.4 hPa | 0 mm | - | - | - |
| 1777530990 | 13.89° C | 97% | 1012.3 hPa | 0 mm | - | - | - |
| 1777530367 | 13.89° C | 97% | 1012.2 hPa | 0 mm | - | - | - |
* Rain latest hour (hover to see other rain measurements)
** Current wind speed in m/s (hover to see current wind gust speed)